Time,TemperatureF,DewpointF,PressureIn,WindDirection,WindDirectionDegrees,WindSpeedMPH,WindSpeedGustMPH,Humidity,HourlyPrecipIn,Conditions,Clouds,dailyrainin,SoftwareType,DateUTC
2013-04-27 00:04:00,68.0,21.6,25.82,North,0,0.0,0.0,17,0.00,,---,0.00,VWS V13.01,2013-04-27 06:04:00,
2013-04-27 00:09:00,68.0,21.6,25.82,North,0,0.0,0.0,17,0.00,,---,0.00,VWS V13.01,2013-04-27 06:09:00,
2013-04-27 00:14:00,68.0,21.6,25.82,North,0,0.0,0.0,17,0.00,,---,0.00,VWS V13.01,2013-04-27 06:14:00,
2013-04-27 00:19:00,67.6,21.3,25.82,North,0,0.0,0.0,17,0.00,,---,0.00,VWS V13.01,2013-04-27 06:19:00,
2013-04-27 00:24:00,67.5,21.2,25.82,North,0,0.0,0.0,17,0.00,,---,0.00,VWS V13.01,2013-04-27 06:24:00,
2013-04-27 00:29:00,67.5,21.2,25.82,North,0,0.0,0.0,17,0.00,,---,0.00,VWS V13.01,2013-04-27 06:29:00,
2013-04-27 00:34:00,67.5,21.2,25.82,North,0,0.0,0.0,17,0.00,,---,0.00,VWS V13.01,2013-04-27 06:34:00,
2013-04-27 00:39:00,67.3,21.0,25.82,North,0,0.0,0.0,17,0.00,,---,0.00,VWS V13.01,2013-04-27 06:39:00,
2013-04-27 00:44:00,67.3,21.0,25.82,North,0,0.0,0.0,17,0.00,,---,0.00,VWS V13.01,2013-04-27 06:44:00,
2013-04-27 00:49:00,67.5,21.2,25.82,North,0,0.0,0.0,17,0.00,,---,0.00,VWS V13.01,2013-04-27 06:49:00,
2013-04-27 00:54:00,67.5,21.2,25.82,North,0,0.0,0.0,17,0.00,,---,0.00,VWS V13.01,2013-04-27 06:54:00,
2013-04-27 00:59:00,67.5,21.2,25.82,North,0,0.0,0.0,17,0.00,,---,0.00,VWS V13.01,2013-04-27 06:59:00,
2013-04-27 01:04:00,67.6,21.3,25.82,North,0,0.0,0.0,17,0.00,,---,0.00,VWS V13.01,2013-04-27 07:04:00,
2013-04-27 01:09:00,67.6,21.3,25.79,North,0,0.0,0.0,17,0.00,,---,0.00,VWS V13.01,2013-04-27 07:09:00,
2013-04-27 01:14:00,67.6,21.3,25.79,North,0,0.0,0.0,17,0.00,,---,0.00,VWS V13.01,2013-04-27 07:14:00,
2013-04-27 01:19:00,67.6,21.3,25.79,North,0,0.0,0.0,17,0.00,,---,0.00,VWS V13.01,2013-04-27 07:19:00,
2013-04-27 01:24:00,67.8,21.5,25.79,North,0,0.0,0.0,17,0.00,,---,0.00,VWS V13.01,2013-04-27 07:24:00,
2013-04-27 01:29:00,67.8,21.5,25.79,North,0,0.0,0.0,17,0.00,,---,0.00,VWS V13.01,2013-04-27 07:29:00,
2013-04-27 01:34:00,67.8,21.5,25.79,North,0,0.0,0.0,17,0.00,,---,0.00,VWS V13.01,2013-04-27 07:34:00,
2013-04-27 01:39:00,67.6,21.3,25.79,North,0,0.0,0.0,17,0.00,,---,0.00,VWS V13.01,2013-04-27 07:39:00,
2013-04-27 01:44:00,67.6,21.3,25.79,North,0,0.0,0.0,17,0.00,,---,0.00,VWS V13.01,2013-04-27 07:44:00,
2013-04-27 01:49:00,67.6,21.3,25.79,North,0,0.0,0.0,17,0.00,,---,0.00,VWS V13.01,2013-04-27 07:49:00,
2013-04-27 01:54:00,67.6,21.3,25.79,North,0,0.0,0.0,17,0.00,,---,0.00,VWS V13.01,2013-04-27 07:54:00,
2013-04-27 01:59:00,67.5,21.2,25.79,North,0,0.0,0.0,17,0.00,,---,0.00,VWS V13.01,2013-04-27 07:59:00,
2013-04-27 02:04:00,67.6,21.3,25.79,North,0,0.0,0.0,17,0.00,,---,0.00,VWS V13.01,2013-04-27 08:04:00,
2013-04-27 02:09:00,67.5,21.2,25.76,North,0,0.0,0.0,17,0.00,,---,0.00,VWS V13.01,2013-04-27 08:09:00,
2013-04-27 02:14:00,67.5,21.2,25.76,North,0,0.0,0.0,17,0.00,,---,0.00,VWS V13.01,2013-04-27 08:14:00,
2013-04-27 02:19:00,67.5,21.2,25.76,North,0,0.0,0.0,17,0.00,,---,0.00,VWS V13.01,2013-04-27 08:19:00,
2013-04-27 02:24:00,67.5,21.2,25.79,North,0,0.0,0.0,17,0.00,,---,0.00,VWS V13.01,2013-04-27 08:24:00,
2013-04-27 02:29:00,67.5,21.2,25.79,North,0,0.0,0.0,17,0.00,,---,0.00,VWS V13.01,2013-04-27 08:29:00,
2013-04-27 02:34:00,67.3,21.0,25.79,North,0,0.0,0.0,17,0.00,,---,0.00,VWS V13.01,2013-04-27 08:34:00,
2013-04-27 02:39:00,67.3,21.0,25.79,North,0,0.0,0.0,17,0.00,,---,0.00,VWS V13.01,2013-04-27 08:39:00,
2013-04-27 02:44:00,67.1,20.9,25.79,North,0,0.0,0.0,17,0.00,,---,0.00,VWS V13.01,2013-04-27 08:44:00,
2013-04-27 02:49:00,67.1,20.9,25.79,North,0,0.0,0.0,17,0.00,,---,0.00,VWS V13.01,2013-04-27 08:49:00,
2013-04-27 02:54:00,67.1,20.9,25.76,North,0,0.0,0.0,17,0.00,,---,0.00,VWS V13.01,2013-04-27 08:54:00,
2013-04-27 02:59:00,67.1,20.9,25.76,North,0,0.0,0.0,17,0.00,,---,0.00,VWS V13.01,2013-04-27 08:59:00,
2013-04-27 03:04:00,66.9,20.7,25.76,North,0,0.0,0.0,17,0.00,,---,0.00,VWS V13.01,2013-04-27 09:04:00,
2013-04-27 03:09:00,66.9,20.7,25.76,North,0,0.0,0.0,17,0.00,,---,0.00,VWS V13.01,2013-04-27 09:09:00,
2013-04-27 03:14:00,66.9,20.7,25.76,North,0,0.0,0.0,17,0.00,,---,0.00,VWS V13.01,2013-04-27 09:14:00,
2013-04-27 03:19:00,66.9,20.7,25.76,North,0,0.0,0.0,17,0.00,,---,0.00,VWS V13.01,2013-04-27 09:19:00,
2013-04-27 03:24:00,66.9,20.7,25.79,North,0,0.0,0.0,17,0.00,,---,0.00,VWS V13.01,2013-04-27 09:24:00,
2013-04-27 03:29:00,66.9,20.7,25.79,North,0,0.0,0.0,17,0.00,,---,0.00,VWS V13.01,2013-04-27 09:29:00,
2013-04-27 03:34:00,66.9,20.7,25.79,North,0,0.0,0.0,17,0.00,,---,0.00,VWS V13.01,2013-04-27 09:34:00,
2013-04-27 03:39:00,66.9,20.7,25.79,North,0,0.0,0.0,17,0.00,,---,0.00,VWS V13.01,2013-04-27 09:39:00,
2013-04-27 03:44:00,66.9,20.7,25.79,North,0,0.0,0.0,17,0.00,,---,0.00,VWS V13.01,2013-04-27 09:44:00,
2013-04-27 03:49:00,66.9,20.7,25.79,North,0,0.0,0.0,17,0.00,,---,0.00,VWS V13.01,2013-04-27 09:49:00,
2013-04-27 03:54:00,67.1,20.9,25.76,North,0,0.0,0.0,17,0.00,,---,0.00,VWS V13.01,2013-04-27 09:54:00,
2013-04-27 03:59:00,67.3,21.0,25.76,North,0,0.0,0.0,17,0.00,,---,0.00,VWS V13.01,2013-04-27 09:59:00,
2013-04-27 04:04:00,67.3,21.0,25.76,North,0,0.0,0.0,17,0.00,,---,0.00,VWS V13.01,2013-04-27 10:04:00,
2013-04-27 04:09:00,67.3,21.0,25.76,North,0,0.0,0.0,17,0.00,,---,0.00,VWS V13.01,2013-04-27 10:09:00,
2013-04-27 04:14:00,67.5,21.2,25.76,North,0,0.0,0.0,17,0.00,,---,0.00,VWS V13.01,2013-04-27 10:14:00,
2013-04-27 04:19:00,67.3,21.0,25.76,North,0,0.0,0.0,17,0.00,,---,0.00,VWS V13.01,2013-04-27 10:19:00,
2013-04-27 04:24:00,67.3,21.0,25.79,North,0,0.0,0.0,17,0.00,,---,0.00,VWS V13.01,2013-04-27 10:24:00,
2013-04-27 04:29:00,67.3,21.0,25.79,North,0,0.0,0.0,17,0.00,,---,0.00,VWS V13.01,2013-04-27 10:29:00,
2013-04-27 04:34:00,67.3,21.0,25.79,North,0,0.0,0.0,17,0.00,,---,0.00,VWS V13.01,2013-04-27 10:34:00,
2013-04-27 04:39:00,67.1,20.9,25.79,North,0,0.0,0.0,17,0.00,,---,0.00,VWS V13.01,2013-04-27 10:39:00,
2013-04-27 04:44:00,66.9,20.7,25.79,North,0,0.0,0.0,17,0.00,,---,0.00,VWS V13.01,2013-04-27 10:44:00,
2013-04-27 04:49:00,66.9,20.7,25.79,North,0,0.0,0.0,17,0.00,,---,0.00,VWS V13.01,2013-04-27 10:49:00,
2013-04-27 04:54:00,66.9,20.7,25.79,North,0,0.0,0.0,17,0.00,,---,0.00,VWS V13.01,2013-04-27 10:54:00,
2013-04-27 04:59:00,66.7,20.6,25.79,North,0,0.0,0.0,17,0.00,,---,0.00,VWS V13.01,2013-04-27 10:59:00,
2013-04-27 05:04:00,66.7,20.6,25.79,North,0,0.0,0.0,17,0.00,,---,0.00,VWS V13.01,2013-04-27 11:04:00,
2013-04-27 05:09:00,66.9,20.7,25.79,North,0,0.0,0.0,17,0.00,,---,0.00,VWS V13.01,2013-04-27 11:09:00,
2013-04-27 05:14:00,66.9,20.7,25.79,North,0,0.0,0.0,17,0.00,,---,0.00,VWS V13.01,2013-04-27 11:14:00,
2013-04-27 05:19:00,67.1,20.9,25.79,North,0,0.0,0.0,17,0.00,,---,0.00,VWS V13.01,2013-04-27 11:19:00,
2013-04-27 05:24:00,67.1,20.9,25.79,North,0,0.0,0.0,17,0.00,,---,0.00,VWS V13.01,2013-04-27 11:24:00,
2013-04-27 05:29:00,67.1,20.9,25.79,North,0,0.0,0.0,17,0.00,,---,0.00,VWS V13.01,2013-04-27 11:29:00,
2013-04-27 05:34:00,67.1,20.9,25.79,North,0,0.0,0.0,17,0.00,,---,0.00,VWS V13.01,2013-04-27 11:34:00,
2013-04-27 05:39:00,67.1,20.9,25.79,North,0,0.0,0.0,17,0.00,,---,0.00,VWS V13.01,2013-04-27 11:39:00,
2013-04-27 05:44:00,67.3,21.0,25.79,North,0,0.0,0.0,17,0.00,,---,0.00,VWS V13.01,2013-04-27 11:44:00,
2013-04-27 05:49:00,67.5,21.2,25.79,North,0,0.0,0.0,17,0.00,,---,0.00,VWS V13.01,2013-04-27 11:49:00,
2013-04-27 05:54:00,67.6,21.3,25.79,North,0,0.0,0.0,17,0.00,,---,0.00,VWS V13.01,2013-04-27 11:54:00,
2013-04-27 05:59:00,67.6,21.3,25.79,North,0,0.0,0.0,17,0.00,,---,0.00,VWS V13.01,2013-04-27 11:59:00,
2013-04-27 06:04:00,68.0,21.6,25.79,North,0,0.0,0.0,17,0.00,,---,0.00,VWS V13.01,2013-04-27 12:04:00,
2013-04-27 06:09:00,68.0,21.6,25.79,North,0,0.0,0.0,17,0.00,,---,0.00,VWS V13.01,2013-04-27 12:09:00,
2013-04-27 06:14:00,68.0,21.6,25.79,North,0,0.0,0.0,17,0.00,,---,0.00,VWS V13.01,2013-04-27 12:14:00,
2013-04-27 06:19:00,68.2,21.7,25.79,North,0,0.0,0.0,17,0.00,,---,0.00,VWS V13.01,2013-04-27 12:19:00,
2013-04-27 06:24:00,68.4,21.9,25.79,North,0,0.0,0.0,17,0.00,,---,0.00,VWS V13.01,2013-04-27 12:24:00,
2013-04-27 06:29:00,68.5,22.0,25.79,North,0,0.0,0.0,17,0.00,,---,0.00,VWS V13.01,2013-04-27 12:29:00,
2013-04-27 06:34:00,68.7,22.2,25.79,North,0,0.0,0.0,17,0.00,,---,0.00,VWS V13.01,2013-04-27 12:34:00,
2013-04-27 06:39:00,68.9,22.3,25.79,North,0,0.0,0.0,17,0.00,,---,0.00,VWS V13.01,2013-04-27 12:39:00,
2013-04-27 06:44:00,68.9,22.3,25.79,North,0,0.0,0.0,17,0.00,,---,0.00,VWS V13.01,2013-04-27 12:44:00,
2013-04-27 06:49:00,68.9,22.3,25.79,North,0,0.0,0.0,17,0.00,,---,0.00,VWS V13.01,2013-04-27 12:49:00,
2013-04-27 06:54:00,69.3,22.6,25.82,North,0,0.0,0.0,17,0.00,,---,0.00,VWS V13.01,2013-04-27 12:54:00,
2013-04-27 06:59:00,69.4,22.8,25.82,North,0,0.0,0.0,17,0.00,,---,0.00,VWS V13.01,2013-04-27 12:59:00,
2013-04-27 07:04:00,69.6,22.9,25.82,North,0,0.0,0.0,17,0.00,,---,0.00,VWS V13.01,2013-04-27 13:04:00,
2013-04-27 07:09:00,69.8,23.1,25.82,North,0,0.0,0.0,17,0.00,,---,0.00,VWS V13.01,2013-04-27 13:09:00,
2013-04-27 07:14:00,70.2,23.4,25.82,North,0,0.0,0.0,17,0.00,,---,0.00,VWS V13.01,2013-04-27 13:14:00,
2013-04-27 07:19:00,70.5,23.6,25.82,North,0,0.0,0.0,17,0.00,,---,0.00,VWS V13.01,2013-04-27 13:19:00,
2013-04-27 07:24:00,70.7,23.8,25.82,North,0,0.0,0.0,17,0.00,,---,0.00,VWS V13.01,2013-04-27 13:24:00,
2013-04-27 07:29:00,70.9,23.9,25.82,North,0,0.0,0.0,17,0.00,,---,0.00,VWS V13.01,2013-04-27 13:29:00,
2013-04-27 07:34:00,71.1,24.1,25.82,North,0,0.0,0.0,17,0.00,,---,0.00,VWS V13.01,2013-04-27 13:34:00,
2013-04-27 07:39:00,71.2,24.2,25.85,North,0,0.0,0.0,17,0.00,,---,0.00,VWS V13.01,2013-04-27 13:39:00,
2013-04-27 07:44:00,71.2,24.2,25.85,North,0,0.0,0.0,17,0.00,,---,0.00,VWS V13.01,2013-04-27 13:44:00,
2013-04-27 07:49:00,71.2,24.2,25.85,North,0,0.0,0.0,17,0.00,,---,0.00,VWS V13.01,2013-04-27 13:49:00,
2013-04-27 07:54:00,70.9,23.9,25.85,North,0,0.0,0.0,17,0.00,,---,0.00,VWS V13.01,2013-04-27 13:54:00,
2013-04-27 07:59:00,70.7,23.8,25.85,North,0,0.0,0.0,17,0.00,,---,0.00,VWS V13.01,2013-04-27 13:59:00,
2013-04-27 08:04:00,70.3,23.5,25.85,North,0,0.0,0.0,17,0.00,,---,0.00,VWS V13.01,2013-04-27 14:04:00,
2013-04-27 08:09:00,70.2,23.4,25.85,North,0,0.0,0.0,17,0.00,,---,0.00,VWS V13.01,2013-04-27 14:09:00,
2013-04-27 08:14:00,70.0,23.2,25.85,North,0,0.0,0.0,17,0.00,,---,0.00,VWS V13.01,2013-04-27 14:14:00,
2013-04-27 08:19:00,70.2,23.4,25.85,North,0,0.0,0.0,17,0.00,,---,0.00,VWS V13.01,2013-04-27 14:19:00,
2013-04-27 08:24:00,70.5,23.6,25.85,North,0,0.0,0.0,17,0.00,,---,0.00,VWS V13.01,2013-04-27 14:24:00,
2013-04-27 08:29:00,70.7,23.8,25.85,North,0,0.0,0.0,17,0.00,,---,0.00,VWS V13.01,2013-04-27 14:29:00,
2013-04-27 08:34:00,70.5,23.6,25.85,North,0,0.0,0.0,17,0.00,,---,0.00,VWS V13.01,2013-04-27 14:34:00,
2013-04-27 08:39:00,70.7,23.8,25.88,North,0,0.0,0.0,17,0.00,,---,0.00,VWS V13.01,2013-04-27 14:39:00,
2013-04-27 08:44:00,71.1,24.1,25.88,North,0,0.0,0.0,17,0.00,,---,0.00,VWS V13.01,2013-04-27 14:44:00,
2013-04-27 08:49:00,71.6,23.1,25.88,North,0,0.0,0.0,16,0.00,,---,0.00,VWS V13.01,2013-04-27 14:49:00,
2013-04-27 08:54:00,72.0,23.4,25.88,North,0,0.0,0.0,16,0.00,,---,0.00,VWS V13.01,2013-04-27 14:54:00,
2013-04-27 08:59:00,72.1,23.5,25.88,North,0,0.0,0.0,16,0.00,,---,0.00,VWS V13.01,2013-04-27 14:59:00,
2013-04-27 09:04:00,72.3,23.6,25.88,North,0,0.0,0.0,16,0.00,,---,0.00,VWS V13.01,2013-04-27 15:04:00,
2013-04-27 09:09:00,72.7,23.9,25.88,North,0,0.0,0.0,16,0.00,,---,0.00,VWS V13.01,2013-04-27 15:09:00,
2013-04-27 09:14:00,73.2,24.4,25.88,North,0,0.0,0.0,16,0.00,,---,0.00,VWS V13.01,2013-04-27 15:14:00,
2013-04-27 09:19:00,73.8,24.8,25.88,North,0,0.0,0.0,16,0.00,,---,0.00,VWS V13.01,2013-04-27 15:19:00,
2013-04-27 09:24:00,74.3,25.2,25.88,North,0,0.0,0.0,16,0.00,,---,0.00,VWS V13.01,2013-04-27 15:24:00,
2013-04-27 09:29:00,74.8,25.7,25.88,North,0,0.0,0.0,16,0.00,,---,0.00,VWS V13.01,2013-04-27 15:29:00,
2013-04-27 09:34:00,75.2,24.4,25.88,North,0,0.0,0.0,15,0.00,,---,0.00,VWS V13.01,2013-04-27 15:34:00,
2013-04-27 09:39:00,75.4,24.6,25.88,North,0,0.0,0.0,15,0.00,,---,0.00,VWS V13.01,2013-04-27 15:39:00,
2013-04-27 09:44:00,75.4,24.6,25.88,North,0,0.0,0.0,15,0.00,,---,0.00,VWS V13.01,2013-04-27 15:44:00,
2013-04-27 09:49:00,75.6,24.7,25.88,North,0,0.0,0.0,15,0.00,,---,0.00,VWS V13.01,2013-04-27 15:49:00,
2013-04-27 09:54:00,75.7,24.9,25.88,North,0,0.0,0.0,15,0.00,,---,0.00,VWS V13.01,2013-04-27 15:54:00,
2013-04-27 09:59:00,76.1,25.1,25.88,North,0,0.0,0.0,15,0.00,,---,0.00,VWS V13.01,2013-04-27 15:59:00,
2013-04-27 10:04:00,76.1,25.1,25.88,North,0,0.0,0.0,15,0.00,,---,0.00,VWS V13.01,2013-04-27 16:04:00,
2013-04-27 10:09:00,76.3,25.3,25.88,North,0,0.0,0.0,15,0.00,,---,0.00,VWS V13.01,2013-04-27 16:09:00,
2013-04-27 10:14:00,76.8,25.7,25.88,North,0,0.0,0.0,15,0.00,,---,0.00,VWS V13.01,2013-04-27 16:14:00,
2013-04-27 10:19:00,77.5,26.3,25.88,North,0,0.0,0.0,15,0.00,,---,0.00,VWS V13.01,2013-04-27 16:19:00,
2013-04-27 10:24:00,77.2,26.0,25.91,North,0,0.0,0.0,15,0.00,,---,0.00,VWS V13.01,2013-04-27 16:24:00,
2013-04-27 10:29:00,77.2,26.0,25.91,North,0,0.0,0.0,15,0.00,,---,0.00,VWS V13.01,2013-04-27 16:29:00,
2013-04-27 10:34:00,77.4,26.1,25.91,North,0,0.0,0.0,15,0.00,,---,0.00,VWS V13.01,2013-04-27 16:34:00,
2013-04-27 10:39:00,77.7,26.4,25.91,North,0,0.0,0.0,15,0.00,,---,0.00,VWS V13.01,2013-04-27 16:39:00,
2013-04-27 10:44:00,77.7,26.4,25.91,North,0,0.0,0.0,15,0.00,,---,0.00,VWS V13.01,2013-04-27 16:44:00,
2013-04-27 10:49:00,77.9,26.6,25.91,North,0,0.0,0.0,15,0.00,,---,0.00,VWS V13.01,2013-04-27 16:49:00,
2013-04-27 10:54:00,78.3,26.9,25.91,North,0,0.0,0.0,15,0.00,,---,0.00,VWS V13.01,2013-04-27 16:54:00,
2013-04-27 10:59:00,78.6,27.1,25.91,North,0,0.0,0.0,15,0.00,,---,0.00,VWS V13.01,2013-04-27 16:59:00,
2013-04-27 11:04:00,78.8,27.3,25.91,North,0,0.0,0.0,15,0.00,,---,0.00,VWS V13.01,2013-04-27 17:04:00,
2013-04-27 11:09:00,78.4,27.0,25.91,North,0,0.0,0.0,15,0.00,,---,0.00,VWS V13.01,2013-04-27 17:09:00,
2013-04-27 11:14:00,78.8,27.3,25.91,North,0,0.0,0.0,15,0.00,,---,0.00,VWS V13.01,2013-04-27 17:14:00,
2013-04-27 11:19:00,79.0,27.4,25.91,North,0,0.0,0.0,15,0.00,,---,0.00,VWS V13.01,2013-04-27 17:19:00,
2013-04-27 11:24:00,79.0,27.4,25.91,North,0,0.0,0.0,15,0.00,,---,0.00,VWS V13.01,2013-04-27 17:24:00,
2013-04-27 11:29:00,79.5,27.9,25.91,North,0,0.0,0.0,15,0.00,,---,0.00,VWS V13.01,2013-04-27 17:29:00,
2013-04-27 11:34:00,80.4,28.6,25.91,North,0,0.0,0.0,15,0.00,,---,0.00,VWS V13.01,2013-04-27 17:34:00,
2013-04-27 11:39:00,81.0,27.3,25.91,North,0,0.0,0.0,14,0.00,,---,0.00,VWS V13.01,2013-04-27 17:39:00,
2013-04-27 11:44:00,80.6,27.0,25.91,North,0,0.0,0.0,14,0.00,,---,0.00,VWS V13.01,2013-04-27 17:44:00,
2013-04-27 11:49:00,80.4,28.6,25.91,North,0,0.0,0.0,15,0.00,,---,0.00,VWS V13.01,2013-04-27 17:49:00,
2013-04-27 11:54:00,80.4,28.6,25.91,North,0,0.0,0.0,15,0.00,,---,0.00,VWS V13.01,2013-04-27 17:54:00,
2013-04-27 11:59:00,80.4,28.6,25.91,North,0,0.0,0.0,15,0.00,,---,0.00,VWS V13.01,2013-04-27 17:59:00,
2013-04-27 12:04:00,80.4,28.6,25.91,North,0,0.0,0.0,15,0.00,,---,0.00,VWS V13.01,2013-04-27 18:04:00,
2013-04-27 12:09:00,80.1,28.3,25.91,North,0,0.0,0.0,15,0.00,,---,0.00,VWS V13.01,2013-04-27 18:09:00,
2013-04-27 12:14:00,80.2,28.4,25.91,North,0,0.0,0.0,15,0.00,,---,0.00,VWS V13.01,2013-04-27 18:14:00,
2013-04-27 12:19:00,80.2,28.4,25.91,North,0,0.0,0.0,15,0.00,,---,0.00,VWS V13.01,2013-04-27 18:19:00,
2013-04-27 12:24:00,79.9,28.1,25.91,North,0,0.0,0.0,15,0.00,,---,0.00,VWS V13.01,2013-04-27 18:24:00,
2013-04-27 12:29:00,79.5,27.9,25.91,North,0,0.0,0.0,15,0.00,,---,0.00,VWS V13.01,2013-04-27 18:29:00,
2013-04-27 12:34:00,79.9,28.1,25.91,North,0,0.0,0.0,15,0.00,,---,0.00,VWS V13.01,2013-04-27 18:34:00,
2013-04-27 12:39:00,80.2,28.4,25.91,North,0,0.0,0.0,15,0.00,,---,0.00,VWS V13.01,2013-04-27 18:39:00,
2013-04-27 12:44:00,80.4,28.6,25.91,North,0,0.0,0.0,15,0.00,,---,0.00,VWS V13.01,2013-04-27 18:44:00,
2013-04-27 12:49:00,81.1,27.5,25.91,North,0,0.0,0.0,14,0.00,,---,0.00,VWS V13.01,2013-04-27 18:49:00,
2013-04-27 12:54:00,80.4,28.6,25.88,North,0,0.0,0.0,15,0.00,,---,0.00,VWS V13.01,2013-04-27 18:54:00,
2013-04-27 12:59:00,80.2,28.4,25.88,North,0,0.0,0.0,15,0.00,,---,0.00,VWS V13.01,2013-04-27 18:59:00,
2013-04-27 13:04:00,80.6,27.0,25.88,North,0,0.0,0.0,14,0.00,,---,0.00,VWS V13.01,2013-04-27 19:04:00,
2013-04-27 13:09:00,80.2,28.4,25.88,North,0,0.0,0.0,15,0.00,,---,0.00,VWS V13.01,2013-04-27 19:09:00,
2013-04-27 13:14:00,80.1,28.3,25.88,North,0,0.0,0.0,15,0.00,,---,0.00,VWS V13.01,2013-04-27 19:14:00,
2013-04-27 13:19:00,80.4,28.6,25.88,North,0,0.0,0.0,15,0.00,,---,0.00,VWS V13.01,2013-04-27 19:19:00,
2013-04-27 13:24:00,80.2,28.4,25.88,North,0,0.0,0.0,15,0.00,,---,0.00,VWS V13.01,2013-04-27 19:24:00,
2013-04-27 13:29:00,80.6,27.0,25.88,North,0,0.0,0.0,14,0.00,,---,0.00,VWS V13.01,2013-04-27 19:29:00,
2013-04-27 13:34:00,79.7,28.0,25.88,North,0,0.0,0.0,15,0.00,,---,0.00,VWS V13.01,2013-04-27 19:34:00,
2013-04-27 13:39:00,79.3,27.7,25.88,North,0,0.0,0.0,15,0.00,,---,0.00,VWS V13.01,2013-04-27 19:39:00,
2013-04-27 13:44:00,79.0,27.4,25.88,North,0,0.0,0.0,15,0.00,,---,0.00,VWS V13.01,2013-04-27 19:44:00,
2013-04-27 13:49:00,78.8,27.3,25.88,North,0,0.0,0.0,15,0.00,,---,0.00,VWS V13.01,2013-04-27 19:49:00,
2013-04-27 13:54:00,79.2,27.6,25.88,North,0,0.0,0.0,15,0.00,,---,0.00,VWS V13.01,2013-04-27 19:54:00,
2013-04-27 13:59:00,79.0,27.4,25.88,North,0,0.0,0.0,15,0.00,,---,0.00,VWS V13.01,2013-04-27 19:59:00,
2013-04-27 14:04:00,78.8,27.3,25.88,North,0,0.0,0.0,15,0.00,,---,0.00,VWS V13.01,2013-04-27 20:04:00,
2013-04-27 14:09:00,78.8,27.3,25.85,North,0,0.0,0.0,15,0.00,,---,0.00,VWS V13.01,2013-04-27 20:09:00,
2013-04-27 14:14:00,78.6,27.1,25.85,North,0,0.0,0.0,15,0.00,,---,0.00,VWS V13.01,2013-04-27 20:14:00,
2013-04-27 14:19:00,78.6,27.1,25.85,North,0,0.0,0.0,15,0.00,,---,0.00,VWS V13.01,2013-04-27 20:19:00,
2013-04-27 14:24:00,78.4,27.0,25.85,North,0,0.0,0.0,15,0.00,,---,0.00,VWS V13.01,2013-04-27 20:24:00,
2013-04-27 14:29:00,78.4,27.0,25.85,North,0,0.0,0.0,15,0.00,,---,0.00,VWS V13.01,2013-04-27 20:29:00,
2013-04-27 14:34:00,78.1,26.7,25.85,North,0,0.0,0.0,15,0.00,,---,0.00,VWS V13.01,2013-04-27 20:34:00,
2013-04-27 14:39:00,77.7,26.4,25.85,North,0,0.0,0.0,15,0.00,,---,0.00,VWS V13.01,2013-04-27 20:39:00,
2013-04-27 14:44:00,77.0,25.9,25.85,North,0,0.0,0.0,15,0.00,,---,0.00,VWS V13.01,2013-04-27 20:44:00,
2013-04-27 14:49:00,76.8,25.7,25.85,North,0,0.0,0.0,15,0.00,,---,0.00,VWS V13.01,2013-04-27 20:49:00,
2013-04-27 14:54:00,76.6,25.6,25.85,North,0,0.0,0.0,15,0.00,,---,0.00,VWS V13.01,2013-04-27 20:54:00,
2013-04-27 14:59:00,76.3,25.3,25.85,North,0,0.0,0.0,15,0.00,,---,0.00,VWS V13.01,2013-04-27 20:59:00,
2013-04-27 15:04:00,76.5,25.4,25.85,North,0,0.0,0.0,15,0.00,,---,0.00,VWS V13.01,2013-04-27 21:04:00,
2013-04-27 15:09:00,75.7,24.9,25.82,North,0,0.0,0.0,15,0.00,,---,0.00,VWS V13.01,2013-04-27 21:09:00,
2013-04-27 15:14:00,75.0,25.8,25.82,North,0,0.0,0.0,16,0.00,,---,0.00,VWS V13.01,2013-04-27 21:14:00,
2013-04-27 15:19:00,74.5,25.4,25.82,North,0,0.0,0.0,16,0.00,,---,0.00,VWS V13.01,2013-04-27 21:19:00,
2013-04-27 15:24:00,74.1,25.1,25.82,North,0,0.0,0.0,16,0.00,,---,0.00,VWS V13.01,2013-04-27 21:24:00,
2013-04-27 15:29:00,73.9,25.0,25.82,North,0,0.0,0.0,16,0.00,,---,0.00,VWS V13.01,2013-04-27 21:29:00,
2013-04-27 15:34:00,73.8,24.8,25.82,North,0,0.0,0.0,16,0.00,,---,0.00,VWS V13.01,2013-04-27 21:34:00,
2013-04-27 15:39:00,73.6,24.7,25.82,North,0,0.0,0.0,16,0.00,,---,0.00,VWS V13.01,2013-04-27 21:39:00,
2013-04-27 15:44:00,73.2,24.4,25.82,North,0,0.0,0.0,16,0.00,,---,0.00,VWS V13.01,2013-04-27 21:44:00,
2013-04-27 15:49:00,73.0,24.2,25.82,North,0,0.0,0.0,16,0.00,,---,0.00,VWS V13.01,2013-04-27 21:49:00,
2013-04-27 15:54:00,72.7,23.9,25.82,North,0,0.0,0.0,16,0.00,,---,0.00,VWS V13.01,2013-04-27 21:54:00,
2013-04-27 15:59:00,72.5,23.8,25.82,North,0,0.0,0.0,16,0.00,,---,0.00,VWS V13.01,2013-04-27 21:59:00,
2013-04-27 16:04:00,72.3,23.6,25.82,North,0,0.0,0.0,16,0.00,,---,0.00,VWS V13.01,2013-04-27 22:04:00,
2013-04-27 16:09:00,72.1,27.6,25.82,North,0,0.0,0.0,19,0.00,,---,0.00,VWS V13.01,2013-04-27 22:09:00,
2013-04-27 16:14:00,72.0,27.5,25.82,North,0,0.0,0.0,19,0.00,,---,0.00,VWS V13.01,2013-04-27 22:14:00,
2013-04-27 16:19:00,71.8,27.3,25.82,North,0,0.0,0.0,19,0.00,,---,0.00,VWS V13.01,2013-04-27 22:19:00,
2013-04-27 16:24:00,71.6,27.2,25.82,North,0,0.0,0.0,19,0.00,,---,0.00,VWS V13.01,2013-04-27 22:24:00,
2013-04-27 16:29:00,71.4,27.0,25.82,North,0,0.0,0.0,19,0.00,,---,0.00,VWS V13.01,2013-04-27 22:29:00,
2013-04-27 16:34:00,71.2,26.9,25.82,North,0,0.0,0.0,19,0.00,,---,0.00,VWS V13.01,2013-04-27 22:34:00,
2013-04-27 16:39:00,70.9,26.6,25.79,North,0,0.0,0.0,19,0.00,,---,0.00,VWS V13.01,2013-04-27 22:39:00,
2013-04-27 16:44:00,70.7,26.5,25.79,North,0,0.0,0.0,19,0.00,,---,0.00,VWS V13.01,2013-04-27 22:44:00,
2013-04-27 16:49:00,70.5,26.3,25.79,North,0,0.0,0.0,19,0.00,,---,0.00,VWS V13.01,2013-04-27 22:49:00,
2013-04-27 16:54:00,70.5,26.3,25.79,North,0,0.0,0.0,19,0.00,,---,0.00,VWS V13.01,2013-04-27 22:54:00,
2013-04-27 16:59:00,70.3,26.2,25.79,North,0,0.0,0.0,19,0.00,,---,0.00,VWS V13.01,2013-04-27 22:59:00,
2013-04-27 17:04:00,70.3,26.2,25.79,North,0,0.0,0.0,19,0.00,,---,0.00,VWS V13.01,2013-04-27 23:04:00,
2013-04-27 17:09:00,70.3,26.2,25.79,North,0,0.0,0.0,19,0.00,,---,0.00,VWS V13.01,2013-04-27 23:09:00,
2013-04-27 17:14:00,70.2,26.0,25.79,North,0,0.0,0.0,19,0.00,,---,0.00,VWS V13.01,2013-04-27 23:14:00,
2013-04-27 17:19:00,69.8,25.7,25.79,North,0,0.0,0.0,19,0.00,,---,0.00,VWS V13.01,2013-04-27 23:19:00,
2013-04-27 17:24:00,69.6,26.8,25.79,North,0,0.0,0.0,20,0.00,,---,0.00,VWS V13.01,2013-04-27 23:24:00,
2013-04-27 17:29:00,69.4,26.7,25.79,North,0,0.0,0.0,20,0.00,,---,0.00,VWS V13.01,2013-04-27 23:29:00,
2013-04-27 17:34:00,69.3,26.5,25.79,North,0,0.0,0.0,20,0.00,,---,0.00,VWS V13.01,2013-04-27 23:34:00,
2013-04-27 17:39:00,69.1,26.4,25.82,North,0,0.0,0.0,20,0.00,,---,0.00,VWS V13.01,2013-04-27 23:39:00,
2013-04-27 17:44:00,68.9,26.2,25.82,North,0,0.0,0.0,20,0.00,,---,0.00,VWS V13.01,2013-04-27 23:44:00,
2013-04-27 17:49:00,68.7,26.1,25.82,North,0,0.0,0.0,20,0.00,,---,0.00,VWS V13.01,2013-04-27 23:49:00,
2013-04-27 17:54:00,68.5,25.9,25.82,North,0,0.0,0.0,20,0.00,,---,0.00,VWS V13.01,2013-04-27 23:54:00,
2013-04-27 17:59:00,68.2,25.6,25.82,North,0,0.0,0.0,20,0.00,,---,0.00,VWS V13.01,2013-04-27 23:59:00,
2013-04-27 18:04:00,68.0,25.5,25.82,North,0,0.0,0.0,20,0.00,,---,0.00,VWS V13.01,2013-04-28 00:04:00,
2013-04-27 18:10:00,67.8,25.3,25.82,North,0,0.0,0.0,20,0.00,,---,0.00,VWS V13.01,2013-04-28 00:10:00,
2013-04-27 18:15:00,67.8,25.3,25.82,North,0,0.0,0.0,20,0.00,,---,0.00,VWS V13.01,2013-04-28 00:15:00,
2013-04-27 18:20:00,67.6,25.2,25.82,North,0,0.0,0.0,20,0.00,,---,0.00,VWS V13.01,2013-04-28 00:20:00,
2013-04-27 18:25:00,67.6,27.5,25.82,North,0,0.0,0.0,22,0.00,,---,0.00,VWS V13.01,2013-04-28 00:25:00,
2013-04-27 18:30:00,67.5,27.3,25.82,North,0,0.0,0.0,22,0.00,,---,0.00,VWS V13.01,2013-04-28 00:30:00,
2013-04-27 18:35:00,67.5,27.3,25.82,North,0,0.0,0.0,22,0.00,,---,0.00,VWS V13.01,2013-04-28 00:35:00,
2013-04-27 18:40:00,67.5,27.3,25.82,North,0,0.0,0.0,22,0.00,,---,0.00,VWS V13.01,2013-04-28 00:40:00,
2013-04-27 18:45:00,67.3,24.9,25.82,North,0,0.0,0.0,20,0.00,,---,0.00,VWS V13.01,2013-04-28 00:45:00,
2013-04-27 18:50:00,67.5,25.0,25.82,North,0,0.0,0.0,20,0.00,,---,0.00,VWS V13.01,2013-04-28 00:50:00,
2013-04-27 18:55:00,67.5,25.0,25.82,North,0,0.0,0.0,20,0.00,,---,0.00,VWS V13.01,2013-04-28 00:55:00,
2013-04-27 19:00:00,67.5,25.0,25.82,North,0,0.0,0.0,20,0.00,,---,0.00,VWS V13.01,2013-04-28 01:00:00,
2013-04-27 19:05:00,67.3,24.9,25.82,North,0,0.0,0.0,20,0.00,,---,0.00,VWS V13.01,2013-04-28 01:05:00,
2013-04-27 19:10:00,67.3,24.9,25.79,North,0,0.0,0.0,20,0.00,,---,0.00,VWS V13.01,2013-04-28 01:10:00,
2013-04-27 19:15:00,67.3,24.9,25.79,North,0,0.0,0.0,20,0.00,,---,0.00,VWS V13.01,2013-04-28 01:15:00,
2013-04-27 19:20:00,67.3,24.9,25.79,North,0,0.0,0.0,20,0.00,,---,0.00,VWS V13.01,2013-04-28 01:20:00,
2013-04-27 19:25:00,67.1,24.7,25.82,North,0,0.0,0.0,20,0.00,,---,0.00,VWS V13.01,2013-04-28 01:25:00,
2013-04-27 19:30:00,66.9,24.6,25.82,North,0,0.0,0.0,20,0.00,,---,0.00,VWS V13.01,2013-04-28 01:30:00,
2013-04-27 19:35:00,66.7,24.4,25.82,North,0,0.0,0.0,20,0.00,,---,0.00,VWS V13.01,2013-04-28 01:35:00,
2013-04-27 19:40:00,66.6,24.3,25.82,North,0,0.0,0.0,20,0.00,,---,0.00,VWS V13.01,2013-04-28 01:40:00,
2013-04-27 19:45:00,66.4,24.1,25.82,North,0,0.0,0.0,20,0.00,,---,0.00,VWS V13.01,2013-04-28 01:45:00,
2013-04-27 19:50:00,66.6,24.3,25.82,North,0,0.0,0.0,20,0.00,,---,0.00,VWS V13.01,2013-04-28 01:50:00,
2013-04-27 19:55:00,66.6,24.3,25.82,North,0,0.0,0.0,20,0.00,,---,0.00,VWS V13.01,2013-04-28 01:55:00,
2013-04-27 20:00:00,66.6,24.3,25.82,North,0,0.0,0.0,20,0.00,,---,0.00,VWS V13.01,2013-04-28 02:00:00,
2013-04-27 20:05:00,66.6,24.3,25.82,North,0,0.0,0.0,20,0.00,,---,0.00,VWS V13.01,2013-04-28 02:05:00,
2013-04-27 20:10:00,66.6,24.3,25.82,North,0,0.0,0.0,20,0.00,,---,0.00,VWS V13.01,2013-04-28 02:10:00,
2013-04-27 20:15:00,66.7,24.4,25.82,North,0,0.0,0.0,20,0.00,,---,0.00,VWS V13.01,2013-04-28 02:15:00,
2013-04-27 20:20:00,66.7,24.4,25.82,North,0,0.0,0.0,20,0.00,,---,0.00,VWS V13.01,2013-04-28 02:20:00,
2013-04-27 20:25:00,66.6,24.3,25.82,North,0,0.0,0.0,20,0.00,,---,0.00,VWS V13.01,2013-04-28 02:25:00,
2013-04-27 20:30:00,66.6,24.3,25.82,North,0,0.0,0.0,20,0.00,,---,0.00,VWS V13.01,2013-04-28 02:30:00,
2013-04-27 20:35:00,66.4,24.1,25.82,North,0,0.0,0.0,20,0.00,,---,0.00,VWS V13.01,2013-04-28 02:35:00,
2013-04-27 20:40:00,66.2,24.0,25.82,North,0,0.0,0.0,20,0.00,,---,0.00,VWS V13.01,2013-04-28 02:40:00,
2013-04-27 20:45:00,66.2,24.0,25.82,North,0,0.0,0.0,20,0.00,,---,0.00,VWS V13.01,2013-04-28 02:45:00,
2013-04-27 20:50:00,66.2,24.0,25.82,North,0,0.0,0.0,20,0.00,,---,0.00,VWS V13.01,2013-04-28 02:50:00,
2013-04-27 20:55:00,66.4,24.1,25.82,North,0,0.0,0.0,20,0.00,,---,0.00,VWS V13.01,2013-04-28 02:55:00,
2013-04-27 21:00:00,66.4,24.1,25.82,North,0,0.0,0.0,20,0.00,,---,0.00,VWS V13.01,2013-04-28 03:00:00,
2013-04-27 21:05:00,66.6,24.3,25.82,North,0,0.0,0.0,20,0.00,,---,0.00,VWS V13.01,2013-04-28 03:05:00,
2013-04-27 21:10:00,66.6,24.3,25.82,North,0,0.0,0.0,20,0.00,,---,0.00,VWS V13.01,2013-04-28 03:10:00,
2013-04-27 21:15:00,66.4,24.1,25.82,North,0,0.0,0.0,20,0.00,,---,0.00,VWS V13.01,2013-04-28 03:15:00,
2013-04-27 21:20:00,66.4,24.1,25.82,North,0,0.0,0.0,20,0.00,,---,0.00,VWS V13.01,2013-04-28 03:20:00,
2013-04-27 21:25:00,66.4,24.1,25.82,North,0,0.0,0.0,20,0.00,,---,0.00,VWS V13.01,2013-04-28 03:25:00,
2013-04-27 21:30:00,66.4,24.1,25.82,North,0,0.0,0.0,20,0.00,,---,0.00,VWS V13.01,2013-04-28 03:30:00,
2013-04-27 21:35:00,66.6,24.3,25.82,North,0,0.0,0.0,20,0.00,,---,0.00,VWS V13.01,2013-04-28 03:35:00,
2013-04-27 21:40:00,66.6,24.3,25.82,North,0,0.0,0.0,20,0.00,,---,0.00,VWS V13.01,2013-04-28 03:40:00,
2013-04-27 21:45:00,66.6,24.3,25.82,North,0,0.0,0.0,20,0.00,,---,0.00,VWS V13.01,2013-04-28 03:45:00,
2013-04-27 21:50:00,66.6,24.3,25.82,North,0,0.0,0.0,20,0.00,,---,0.00,VWS V13.01,2013-04-28 03:50:00,
2013-04-27 21:55:00,66.6,24.3,25.82,North,0,0.0,0.0,20,0.00,,---,0.00,VWS V13.01,2013-04-28 03:55:00,
2013-04-27 22:00:00,66.7,24.4,25.82,North,0,0.0,0.0,20,0.00,,---,0.00,VWS V13.01,2013-04-28 04:00:00,
2013-04-27 22:01:00,66.7,24.4,25.82,North,0,0.0,0.0,20,0.00,,---,0.00,VWS V13.01,2013-04-28 04:01:00,
2013-04-27 22:02:00,66.9,24.6,25.82,North,0,0.0,0.0,20,0.00,,---,0.00,VWS V13.01,2013-04-28 04:02:00,
2013-04-27 22:07:00,66.9,24.6,25.82,North,0,0.0,0.0,20,0.00,,---,0.00,VWS V13.01,2013-04-28 04:07:00,
2013-04-27 22:12:00,67.1,24.7,25.82,North,0,0.0,0.0,20,0.00,,---,0.00,VWS V13.01,2013-04-28 04:12:00,
2013-04-27 22:17:00,67.3,21.0,25.82,North,0,0.0,0.0,17,0.00,,---,0.00,VWS V13.01,2013-04-28 04:17:00,
2013-04-27 22:22:00,67.3,21.0,25.82,North,0,0.0,0.0,17,0.00,,---,0.00,VWS V13.01,2013-04-28 04:22:00,
2013-04-27 22:27:00,67.5,21.2,25.82,North,0,0.0,0.0,17,0.00,,---,0.00,VWS V13.01,2013-04-28 04:27:00,
2013-04-27 22:33:00,67.5,21.2,25.82,North,0,0.0,0.0,17,0.00,,---,0.00,VWS V13.01,2013-04-28 04:33:00,
2013-04-27 22:38:00,67.5,21.2,25.82,North,0,0.0,0.0,17,0.00,,---,0.00,VWS V13.01,2013-04-28 04:38:00,
2013-04-27 22:43:00,67.6,21.3,25.82,North,0,0.0,0.0,17,0.00,,---,0.00,VWS V13.01,2013-04-28 04:43:00,
2013-04-27 22:48:00,67.6,21.3,25.82,North,0,0.0,0.0,17,0.00,,---,0.00,VWS V13.01,2013-04-28 04:48:00,
2013-04-27 22:53:00,67.6,21.3,25.82,North,0,0.0,0.0,17,0.00,,---,0.00,VWS V13.01,2013-04-28 04:53:00,
2013-04-27 22:58:00,67.6,21.3,25.82,North,0,0.0,0.0,17,0.00,,---,0.00,VWS V13.01,2013-04-28 04:58:00,
2013-04-27 23:03:00,67.5,21.2,25.82,North,0,0.0,0.0,17,0.00,,---,0.00,VWS V13.01,2013-04-28 05:03:00,
2013-04-27 23:08:00,67.5,21.2,25.82,North,0,0.0,0.0,17,0.00,,---,0.00,VWS V13.01,2013-04-28 05:08:00,
2013-04-27 23:13:00,67.5,21.2,25.82,North,0,0.0,0.0,17,0.00,,---,0.00,VWS V13.01,2013-04-28 05:13:00,
2013-04-27 23:18:00,67.5,21.2,25.82,North,0,0.0,0.0,17,0.00,,---,0.00,VWS V13.01,2013-04-28 05:18:00,
2013-04-27 23:23:00,67.5,21.2,25.82,North,0,0.0,0.0,17,0.00,,---,0.00,VWS V13.01,2013-04-28 05:23:00,
2013-04-27 23:28:00,67.5,21.2,25.82,North,0,0.0,0.0,17,0.00,,---,0.00,VWS V13.01,2013-04-28 05:28:00,
2013-04-27 23:33:00,67.5,21.2,25.82,North,0,0.0,0.0,17,0.00,,---,0.00,VWS V13.01,2013-04-28 05:33:00,
2013-04-27 23:38:00,67.6,21.3,25.79,North,0,0.0,0.0,17,0.00,,---,0.00,VWS V13.01,2013-04-28 05:38:00,
2013-04-27 23:43:00,67.5,21.2,25.79,North,0,0.0,0.0,17,0.00,,---,0.00,VWS V13.01,2013-04-28 05:43:00,
2013-04-27 23:48:00,67.3,21.0,25.79,North,0,0.0,0.0,17,0.00,,---,0.00,VWS V13.01,2013-04-28 05:48:00,
2013-04-27 23:53:00,67.1,20.9,25.79,North,0,0.0,0.0,17,0.00,,---,0.00,VWS V13.01,2013-04-28 05:53:00,
2013-04-27 23:58:00,67.1,20.9,25.79,North,0,0.0,0.0,17,0.00,,---,0.00,VWS V13.01,2013-04-28 05:58:00,